S-NET A (43188 NORAD) Tracking and Keplerian Element Data

This shows tracking and keplerian element data for the satellite.

Feedback or suggestion? Click here.




ElementValue
Catalog43188
NameS-NET A
Epoch Orbit19829
Epoch Day261.99545298
Epoch Year2021
RAAN167.8778
Inclination97.6682
Eccentricity0.0011864
Argument of Perigee124.2773
Mean Anonmoly235.9574
Mean Motion14.97133962
Decay Rate-3E-08
L11 43188U 18014J 21261.99545298 -.00000003 00000-0 47277-5 0 9997
L22 43188 97.6682 167.8778 0011864 124.2773 235.9574 14.97133962198293

Live tracking and technical data element details for S-NET A (NORAD 43188). S-NET A can be tracked NOW for your location showing map with azimuth and elevation plus other details from your city location.

Track the satellite on the map from your city or location and see movement details for azimuth, elevation, latitude, longitude, range, height, and movement on the map or in text.







IsCatalogInMostPopularTable: catalog: 43188, numindb: 634
Update: records affected: 1



GetName: 43188 S-NET A

Hit Count: updated at: Sat, 25 Sep 2021 23:44:40 GMT